FW2889 Weather Reports


time (UTC)temp
C
wind
direction
speed
KPH
gust
KPH
rain 1hr
cm
rain 24hr
cm
rain mn
cm
humidity
%
barometer
mb
20260505090041 21 0 3.2 11.3 0.00 0.00 0.00 34 994.3
20260505083042 21 0 3.2 9.7 0.00 0.00 0.00 34 994.6
20260505080041 21 0 3.2 11.3 0.00 0.00 0.00 35 994.8
20260505073041 21 315 4.8 14.5 0.00 0.00 0.00 37 995.0
20260505070041 20 0 4.8 14.5 0.00 0.00 0.00 36 995.0
20260505063041 19 0 6.4 16.1 0.00 0.00 0.00 39 995.1
20260505053101 16 0 6.4 14.5 0.00 0.00 0.00 44 995.1
20260505050121 15 0 6.4 14.5 0.00 0.00 0.00 46 995.2
20260505040043 13 315 4.8 9.7 0.00 0.00 0.00 49 995.3
20260505033043 12 0 8.0 14.5 0.00 0.00 0.00 48 995.3
20260505030040 11 0 11.3 19.3 0.00 0.00 0.00 47 995.2
20260505023040 11 0 8.0 17.7 0.00 0.00 0.00 47 995.1
20260505020041 10 0 9.7 19.3 0.00 0.00 0.00 48 995.0
20260505013042 10 0 9.7 17.7 0.00 0.00 0.00 48 994.9
20260505003042 11 0 8.0 17.7 0.00 0.00 0.00 47 994.9
20260504233042 11 0 4.8 19.3 0.00 0.00 0.00 47 994.7
20260504230042 11 0 9.7 17.7 0.00 0.00 0.00 47 994.7
20260504223041 11 0 6.4 17.7 0.00 0.00 0.00 47 994.6
20260504220041 11 0 3.2 8.0 0.00 0.00 0.00 46 994.6
20260504213041 11 90 1.6 4.8 0.00 0.00 0.00 47 994.5
20260504203042 12 113 3.2 6.4 0.00 0.00 0.00 47 994.7
20260504200043 12 113 3.2 4.8 0.00 0.00 0.00 47 994.7
20260504193042 12 90 3.2 6.4 0.00 0.00 0.00 46 994.6
20260504183042 13 90 1.6 4.8 0.00 0.00 0.00 46 994.8
20260504180042 13 68 1.6 6.4 0.00 0.00 0.00 44 994.8
20260504173142 13 45 1.6 4.8 0.00 0.00 0.00 47 994.8
20260504130202 19 90 3.2 11.3 0.00 0.00 0.00 32 994.5